Location: Dengkil
(2.8600°N, 101.6806°E)
Time: 05:00:48
(UTC+00:00)

Daily predictions for brighter satellites

Satellite Brightness Start Highest point End
(mag) Time Altitude Azimuth Time Altitude Azimuth Time Altitude Azimuth
USA 234 3.5 11:32:17 10° NNE 11:38:49 78° NW 11:45:22 10° SW
Skynet4D Del rocket 4.2 11:34:18 10° NW 11:40:24 68° NNE 11:47:30 10° ESE
IRS-1C 4.1 11:36:13 10° SSE 11:41:31 72° ENE 11:46:47 10° N
COSMO-SKYMED 1 3.3 11:37:43 10° N 11:41:42 54° WNW 11:45:42 10° SSW
Tiangong 0.0 11:40:25 10° W 11:42:59 23° SW 11:45:33 10° SSE
SJ-6F 4.4 11:40:05 10° SSE 11:44:01 59° ENE 11:47:58 10° N
Cosmos 1707 Rocket 3.5 11:39:57 10° N 11:44:14 89° WSW 11:48:34 10° S
ERS-1 4.5 11:39:44 10° SSE 11:44:43 64° ENE 11:49:38 10° N
Cosmos 1862 Rocket 3.7 11:41:18 10° N 11:45:35 76° W 11:49:52 10° S
Cosmos 1869 Rocket 3.6 11:41:48 10° S 11:46:02 53° E 11:50:17 10° NNE
NATO 3D Rocket 4.1 11:41:40 10° W 11:46:12 47° SSW 11:51:34 10° SE
Resurs 1-3 3.7 11:42:04 10° SSE 11:46:15 52° ENE 11:50:25 10° N
Molniya-1 3.7 11:39:44 10° SSW 11:47:20 72° ESE 11:50:17 10° NNE
Cosmos 2341 Rocket 4.4 11:44:22 10° SSE 11:50:06 39° E 11:55:51 10° NNE
Cosmos 1400 Rocket 4.2 11:51:04 10° SE 11:53:09 15° E 11:55:13 10° ENE
